Meteo Giornale » Osservazioni meteo Russia » Tomsk-Bogashevo
ore: 12:30 - Osservazioni Meteo Tomsk-Bogashevo
Lat. 56° 23' N Lon. 85° 13' E Alt. 182 metri s.l.m.
12 °C
Poco Nuvoloso
Temp. 24 Ore
1 °C
15 °C
Ovest/Sud-Ovest
32.4 Km/h
Dew point 1 °C
Umidità 46 %
Visibilità 10 Km
Il sole sorge alle ore 06:22
Il sole tramonta alle ore 20:15
| Data e Ora | Cielo e Fenomeni | T °C | DP °C | Um. % | Pres. hPa | Vis. km | Vento km/h | |
|---|---|---|---|---|---|---|---|---|
| Oggi h: 12:30 | Poco Nuvoloso | 12 | 1 | 46 | 1011 | 10 | O/SO 32.4 | |
| Oggi h: 12:00 | Poco Nuvoloso | 12 | 3 | 54 | 1011 | 10 | SO 21.6 | |
| Oggi h: 11:30 | Sereno | 12 | 3 | 54 | 1011 | 10 | SO 25.2 | |
| Oggi h: 11:00 | Sereno | 11 | 4 | 61 | 1011 | 10 | SO 21.6 | |
| Oggi h: 10:30 | Sereno | 10 | 4 | 66 | 1011 | 10 | S/SO 18 | |
| Oggi h: 10:00 | Sereno | 9 | 3 | 66 | 1011 | 10 | S/SO 18 | |
| Oggi h: 09:30 | Sereno | 8 | 3 | 70 | 1011 | 10 | S/SO 18 | |
| Oggi h: 09:00 | Sereno | 7 | 4 | 81 | 1011 | 10 | S/SO 18 | |
| Oggi h: 08:30 | Sereno | 6 | 3 | 81 | 1011 | 10 | S/SO 18 | |
| Oggi h: 08:00 | Sereno | 5 | 3 | 86 | 1010 | 10 | S/SO 18 | |
| Oggi h: 07:30 | Sereno | 4 | 3 | 93 | 1011 | 10 | S/SO 18 | |
| Oggi h: 07:00 | Sereno | 4 | 2 | 86 | 1011 | 10 | S/SO 18 | |
| Oggi h: 06:30 | Sereno | 3 | 2 | 93 | 1011 | 10 | S/SO 14.4 | |
| Oggi h: 06:00 | Sereno | 3 | 2 | 93 | 1011 | 10 | S/SO 14.4 | |
| Oggi h: 05:30 | Sereno | 3 | 2 | 93 | 1011 | 10 | S/SO 14.4 | |
| Oggi h: 05:00 | Sereno | 3 | 2 | 93 | 1011 | 10 | S/SO 14.4 | |
| Oggi h: 04:30 | Sereno | 3 | 2 | 93 | 1011 | 10 | S/SO 14.4 | |
| Oggi h: 04:00 | Sereno | 2 | 2 | 100 | 1010 | 10 | S/SO 10.8 | |
| Oggi h: 03:30 | Sereno | 1 | 1 | 100 | 1010 | 10 | S/SO 10.8 | |
| Oggi h: 03:00 | Sereno | 1 | 1 | 100 | 1010 | 10 | SO 10.8 | |
| Oggi h: 02:30 | Sereno | 2 | 1 | 93 | 1010 | 10 | S/SO 10.8 | |
| Oggi h: 02:00 | Sereno | 2 | 2 | 100 | 1010 | 10 | SO 14.4 | |
| Oggi h: 01:30 | Sereno | 3 | 2 | 93 | 1010 | 10 | SO 14.4 | |
| Oggi h: 01:00 | Sereno | 3 | 2 | 93 | 1010 | 10 | SO 10.8 | |
| Oggi h: 00:30 | Sereno | 3 | 2 | 93 | 1010 | 10 | SO 10.8 | |
| Oggi h: 00:00 | Sereno | 4 | 2 | 86 | 1010 | 10 | SO 10.8 | |
| Ieri h: 23:30 | Sereno | 5 | 3 | 86 | 1010 | 10 | SO 14.4 | |
| Ieri h: 23:00 | Sereno | 5 | 3 | 86 | 1010 | 10 | S/SO 10.8 | |
| Ieri h: 22:30 | Sereno | 6 | 1 | 70 | 1009 | 10 | N 7.2 | |
| Ieri h: 22:00 | Sereno | 7 | 2 | 70 | 1009 | 10 | N 7.2 | |
| Ieri h: 21:30 | Sereno | 8 | 2 | 65 | 1009 | 10 | N 7.2 | |
| Ieri h: 21:00 | Sereno | 9 | 2 | 61 | 1009 | 10 | NO 10.8 | |
| Ieri h: 20:30 | Sereno | 10 | 3 | 61 | 1009 | 10 | NO 10.8 | |
| Ieri h: 20:00 | Sereno | 11 | 3 | 57 | 1008 | 10 | NO 14.4 | |
| Ieri h: 19:30 | Sereno | 12 | 1 | 46 | 1008 | 10 | O 14.4 | |
| Ieri h: 19:00 | Sereno | 13 | 0 | 40 | 1008 | 10 | O 14.4 | |
| Ieri h: 18:30 | Sereno | 13 | -1 | 37 | 1008 | 10 | O/NO 14.4 | |
| Ieri h: 18:00 | Sereno | 13 | -1 | 37 | 1008 | 10 | O 25.2 | |
| Ieri h: 17:30 | Sereno | 14 | 0 | 38 | 1008 | 10 | NO 18 | |
| Ieri h: 17:00 | Sereno | 13 | -1 | 37 | 1008 | 10 | O 21.6 | |
| Ieri h: 16:30 | Sereno | 14 | 0 | 38 | 1008 | 10 | O 18 | |
| Ieri h: 16:00 | Sereno | 15 | 0 | 35 | 1007 | 10 | O 25.2 | |
| Ieri h: 15:30 | Nuvoloso | 14 | 1 | 41 | 1007 | 10 | O 21.6 | |
| Ieri h: 15:00 | Nuvoloso | 14 | 1 | 41 | 1007 | 10 | O 21.6 | |
| Ieri h: 14:30 | Nuvoloso | 13 | 2 | 47 | 1007 | 10 | O 18 | |
| Ieri h: 14:00 | Nuvoloso | 13 | 3 | 50 | 1007 | 10 | O 18 | |



